This is the latest recevied weather packets stored in our database for station/object WA9SDJ-13. If no packets are shown the sender has not sent any weather packets the latest 10 day(s).
| Time | Temp. | Humidity | Pressure | Rain* | Wind** | Luminosity | Snow |
|---|---|---|---|---|---|---|---|
| 1777984022 | 13.33° C | 87% | 1007.8 hPa | 0 mm | - | 37 W/m² | - |
| 1777983963 | 13.33° C | 87% | 1007.8 hPa | 0 mm | - | 30 W/m² | - |
| 1777983902 | 13.33° C | 87% | 1007.7 hPa | 0 mm | - | 32 W/m² | - |
| 1777983842 | 13.33° C | 87% | 1007.7 hPa | 0 mm | - | 41 W/m² | - |
| 1777983783 | 13.33° C | 87% | 1007.7 hPa | 0 mm | - | 49 W/m² | - |
| 1777983723 | 13.33° C | 87% | 1007.5 hPa | 0 mm | - | 55 W/m² | - |
| 1777983661 | 13.33° C | 87% | 1007.5 hPa | 0 mm | - | 55 W/m² | - |
| 1777983602 | 13.33° C | 87% | 1007.5 hPa | 0 mm | - | 56 W/m² | - |
| 1777983542 | 13.33° C | 87% | 1007.5 hPa | 0 mm | - | 58 W/m² | - |
| 1777983482 | 13.33° C | 87% | 1007.5 hPa | 0 mm | - | 58 W/m² | - |
| 1777983422 | 13.33° C | 87% | 1007.5 hPa | 0 mm | - | 60 W/m² | - |
| 1777983362 | 13.33° C | 87% | 1007.5 hPa | 0 mm | - | 60 W/m² | - |
| 1777983303 | 13.33° C | 87% | 1007.7 hPa | 0 mm | - | 56 W/m² | - |
| 1777983242 | 13.33° C | 87% | 1007.7 hPa | 0 mm | - | 53 W/m² | - |
| 1777983182 | 13.33° C | 87% | 1007.7 hPa | 0 mm | - | 49 W/m² | - |
| 1777983122 | 13.33° C | 87% | 1007.7 hPa | 0 mm | - | 46 W/m² | - |
| 1777983063 | 13.33° C | 87% | 1007.7 hPa | 0 mm | - | 42 W/m² | - |
| 1777983003 | 13.33° C | 87% | 1007.7 hPa | 0 mm | - | 33 W/m² | - |
| 1777982941 | 13.33° C | 87% | 1007.5 hPa | 0 mm | - | 30 W/m² | - |
| 1777982882 | 13.33° C | 87% | 1007.5 hPa | 0 mm | - | 28 W/m² | - |
| 1777982822 | 13.33° C | 87% | 1007.5 hPa | 0 mm | - | 30 W/m² | - |
| 1777982762 | 13.33° C | 87% | 1007.3 hPa | 0 mm | - | 30 W/m² | - |
| 1777982702 | 13.33° C | 87% | 1007.4 hPa | 0 mm | - | 30 W/m² | - |
| 1777982642 | 13.33° C | 87% | 1007.4 hPa | 0 mm | - | 26 W/m² | - |
| 1777982582 | 13.33° C | 87% | 1007.3 hPa | 0 mm | - | 25 W/m² | - |
* Rain latest hour (hover to see other rain measurements)
** Current wind speed in m/s (hover to see current wind gust speed)